Starlink 2461

operational
NORAD ID: 48428 Int'l Des: 2021-040 Owner: SPXS Country: US Constellation: starlink
LEOCIRCULARSTARLINK_TYPE

Über Starlink 2461

Beschreibung wird geladen...

Live-Position

3D-Globus wird geladen...

Nächste Überflüge

Höhenverlauf

Altitude vs Time

uPlot chart will show altitude changes over time

Zweizeiliger Elementsatz

1 48428U 21040A 26035.21719536 .00014802 00000-0 49740-3 0 9995
2 48428 53.1612 334.2500 0001436 112.8798 247.2355 15.31068748261553
Epoch: 4. Feb. 2026 • Age: 27 hours

Aktueller Status

Höhe 473.5 km
Geschwindigkeit 7.63 km/s
Subsatellitenpunkt 25.61°N, 94.69°E
Startdatum 9. Mai 2021
Alter 4.7 years
Typ internet

Technische Details

Klassifizierung Payload
Masse 260.00 kg
Trockenmasse 248.00 kg
Gesamtmasse 260.00 kg
Länge 0.20 m
Durchmesser 2.80 m
Spannweite 9.00 m
Form Box + pan
Hersteller SPXS
Bus-Typ Starlink
Phasenstatus In Orbit
Besitzer/Staat SPXS/US

Große Konstellationen

Loading constellations...